• In Germany
  • List of Countries
  • For 7 days
  • Water Temperature
  • Satellite Maps
  • Weather Map
  • Weather Widgets
  • user-avatar
    Login

    Hourly Weather Andora

    Today, 24 January, Wednesday

    Time Temperature Precipitation Wind Pressure Humidity
    00:00 +1°C° 0 mm 1 mps 629 mmHg 65%
    01:00 +1°C° 0 mm 1 mps 629 mmHg 64%
    02:00 +1°C° 0 mm 1 mps 629 mmHg 63%
    03:00 +1°C° 0 mm 1 mps 628 mmHg 62%
    04:00 +1°C° 0 mm 1 mps 628 mmHg 61%
    05:00 +1°C° 0 mm 1 mps 628 mmHg 61%
    06:00 +1°C° 0 mm 1 mps 628 mmHg 60%
    07:00 +2°C° 0 mm 1 mps 628 mmHg 59%
    08:00 +3°C° 0 mm 1 mps 629 mmHg 58%
    09:00 +4°C° 0 mm 1 mps 629 mmHg 57%
    10:00 +6°C° 0 mm 1 mps 630 mmHg 55%
    11:00 +7°C° 0 mm 2 mps 630 mmHg 53%
    12:00 +9°C° 0 mm 2 mps 631 mmHg 51%
    13:00 +8°C° 0 mm 2 mps 630 mmHg 53%
    14:00 +8°C° 0 mm 2 mps 630 mmHg 54%
    15:00 +8°C° 0 mm 2 mps 629 mmHg 56%
    16:00 +6°C° 0 mm 2 mps 629 mmHg 61%
    17:00 +5°C° 0 mm 1 mps 628 mmHg 66%
    18:00 +2°C° 0 mm 1 mps 627 mmHg 70%
    19:00 +2°C° 0 mm 1 mps 627 mmHg 68%
    20:00 +2°C° 0 mm 1 mps 627 mmHg 66%
    21:00 +1°C° 0 mm 1 mps 627 mmHg 64%
    22:00 +1°C° 0 mm 1 mps 626 mmHg 65%
    23:00 +1°C° 0 mm 1 mps 626 mmHg 67%

    Tomorrow, 25 January, Thursday

    Time Temperature Precipitation Wind Pressure Humidity
    00:00 +1°C° 0 mm 1 mps 626 mmHg 68%
    01:00 +1°C° 0 mm 1 mps 625 mmHg 69%
    02:00 -1°C° 0 mm 2 mps 625 mmHg 71%
    03:00 -1°C° 0 mm 2 mps 624 mmHg 72%
    04:00 -1°C° 0 mm 2 mps 624 mmHg 71%
    05:00 -1°C° 0 mm 2 mps 624 mmHg 71%
    06:00 -1°C° 0 mm 2 mps 623 mmHg 70%
    07:00 +1°C° 0 mm 2 mps 624 mmHg 68%
    08:00 +2°C° 0 mm 2 mps 624 mmHg 65%
    09:00 +2°C° 0 mm 2 mps 624 mmHg 62%
    10:00 +4°C° 0 mm 2 mps 624 mmHg 58%
    11:00 +4°C° 0 mm 3 mps 624 mmHg 53%
    12:00 +5°C° 0 mm 3 mps 624 mmHg 49%
    13:00 +5°C° 0 mm 3 mps 624 mmHg 51%
    14:00 +4°C° 0 mm 3 mps 623 mmHg 53%
    15:00 +3°C° 0 mm 3 mps 622 mmHg 55%
    16:00 +3°C° 0.1 mm 2 mps 622 mmHg 62%
    17:00 +2°C° 0.1 mm 2 mps 621 mmHg 68%
    18:00 +2°C° 0.1 mm 1 mps 621 mmHg 75%
    19:00 +1°C° 0.6 mm 1 mps 621 mmHg 79%
    20:00 +1°C° 0.6 mm 1 mps 621 mmHg 83%
    21:00 +1°C° 0.6 mm 1 mps 621 mmHg 87%
    22:00 -2°C° 1 mm 2 mps 621 mmHg 88%
    23:00 -2°C° 1 mm 2 mps 620 mmHg 90%

    Day after tomorrow, 26 January, Friday

    Time Temperature Precipitation Wind Pressure Humidity
    00:00 -2°C° 1 mm 3 mps 620 mmHg 91%
    01:00 -4°C° 0.6 mm 3 mps 620 mmHg 91%
    02:00 -4°C° 0.6 mm 3 mps 620 mmHg 90%
    03:00 -4°C° 0.6 mm 3 mps 620 mmHg 89%
    04:00 -5°C° 0.3 mm 3 mps 620 mmHg 88%
    05:00 -5°C° 0.3 mm 3 mps 620 mmHg 87%
    06:00 -5°C° 0.3 mm 3 mps 620 mmHg 86%
    07:00 -5°C° 0.2 mm 3 mps 621 mmHg 84%
    08:00 -5°C° 0.2 mm 3 mps 621 mmHg 83%
    09:00 -5°C° 0.2 mm 3 mps 622 mmHg 81%
    10:00 -4°C° 0 mm 4 mps 622 mmHg 76%
    11:00 -3°C° 0 mm 4 mps 622 mmHg 71%
    12:00 -3°C° 0 mm 4 mps 623 mmHg 66%
    13:00 -3°C° 0 mm 4 mps 623 mmHg 65%
    14:00 -3°C° 0 mm 4 mps 623 mmHg 63%
    15:00 -3°C° 0 mm 4 mps 623 mmHg 62%
    16:00 -4°C° 0 mm 3 mps 623 mmHg 66%
    17:00 -5°C° 0 mm 3 mps 623 mmHg 71%
    18:00 -6°C° 0 mm 3 mps 623 mmHg 76%
    19:00 -6°C° 0.1 mm 3 mps 623 mmHg 77%
    20:00 -7°C° 0.1 mm 4 mps 624 mmHg 78%
    21:00 -7°C° 0.1 mm 4 mps 624 mmHg 79%
    22:00 -8°C° 0.1 mm 4 mps 624 mmHg 80%
    23:00 -8°C° 0.1 mm 4 mps 624 mmHg 80%

    27 January, Saturday

    Time Temperature Precipitation Wind Pressure Humidity
    00:00 -8°C° 0.1 mm 4 mps 624 mmHg 80%
    01:00 -8°C° 0.2 mm 4 mps 624 mmHg 80%
    02:00 -8°C° 0.2 mm 4 mps 624 mmHg 80%
    03:00 -8°C° 0.2 mm 4 mps 624 mmHg 80%
    04:00 -8°C° 0.1 mm 5 mps 624 mmHg 80%
    05:00 -8°C° 0.1 mm 5 mps 624 mmHg 79%
    06:00 -8°C° 0.1 mm 5 mps 624 mmHg 79%
    07:00 -8°C° 0.1 mm 5 mps 625 mmHg 76%
    08:00 -7°C° 0.1 mm 5 mps 625 mmHg 74%
    09:00 -7°C° 0.1 mm 5 mps 626 mmHg 71%
    10:00 -6°C° 0.1 mm 5 mps 626 mmHg 68%
    11:00 -6°C° 0.1 mm 5 mps 627 mmHg 66%
    12:00 -5°C° 0.1 mm 5 mps 627 mmHg 63%
    13:00 -5°C° 0.1 mm 5 mps 627 mmHg 64%
    14:00 -5°C° 0.1 mm 5 mps 627 mmHg 65%
    15:00 -4°C° 0.1 mm 4 mps 627 mmHg 66%
    16:00 -5°C° 0 mm 4 mps 627 mmHg 70%
    17:00 -7°C° 0 mm 4 mps 627 mmHg 74%
    18:00 -6°C° 0 mm 3 mps 628 mmHg 78%
    19:00 -7°C° 0 mm 3 mps 628 mmHg 79%
    20:00 -7°C° 0 mm 3 mps 629 mmHg 79%
    21:00 -7°C° 0 mm 3 mps 629 mmHg 80%
    22:00 -7°C° 0 mm 3 mps 629 mmHg 79%
    23:00 -7°C° 0 mm 3 mps 629 mmHg 79%

    28 January, Sunday

    Time Temperature Precipitation Wind Pressure Humidity
    00:00 -7°C° 0 mm 3 mps 629 mmHg 78%
    01:00 -6°C° 0 mm 3 mps 630 mmHg 78%
    02:00 -5°C° 0 mm 2 mps 630 mmHg 78%
    03:00 -5°C° 0 mm 2 mps 630 mmHg 77%
    04:00 -5°C° 0 mm 2 mps 630 mmHg 78%
    05:00 -5°C° 0 mm 2 mps 630 mmHg 79%
    06:00 -5°C° 0 mm 3 mps 631 mmHg 79%
    07:00 -3°C° 0 mm 2 mps 631 mmHg 77%
    08:00 -2°C° 0 mm 2 mps 632 mmHg 75%
    09:00 -1°C° 0 mm 2 mps 633 mmHg 73%
    10:00 +1°C° 0 mm 2 mps 633 mmHg 70%
    11:00 +3°C° 0 mm 2 mps 634 mmHg 68%
    12:00 +4°C° 0 mm 2 mps 634 mmHg 65%
    13:00 +4°C° 0 mm 2 mps 634 mmHg 67%
    14:00 +4°C° 0 mm 2 mps 633 mmHg 68%
    15:00 +3°C° 0 mm 2 mps 633 mmHg 69%
    16:00 +2°C° 0 mm 2 mps 633 mmHg 75%
    17:00 -1°C° 0 mm 2 mps 632 mmHg 80%
    18:00 -3°C° 0 mm 2 mps 632 mmHg 86%
    19:00 -3°C° 0 mm 2 mps 632 mmHg 84%
    20:00 -3°C° 0 mm 2 mps 632 mmHg 82%
    21:00 -4°C° 0 mm 2 mps 632 mmHg 80%
    22:00 -2°C° 0 mm 1 mps 632 mmHg 79%
    23:00 -2°C° 0 mm 1 mps 632 mmHg 78%

    29 January, Monday

    Time Temperature Precipitation Wind Pressure Humidity
    00:00 -2°C° 0 mm 1 mps 632 mmHg 77%
    01:00 -2°C° 0 mm 1 mps 632 mmHg 77%
    02:00 -2°C° 0 mm 1 mps 632 mmHg 78%
    03:00 -2°C° 0 mm 1 mps 632 mmHg 78%
    04:00 -2°C° 0 mm 1 mps 632 mmHg 79%
    05:00 -2°C° 0 mm 1 mps 632 mmHg 79%
    06:00 -2°C° 0 mm 1 mps 632 mmHg 79%
    07:00 -1°C° 0 mm 1 mps 632 mmHg 76%
    08:00 0°C° 0 mm 1 mps 633 mmHg 73%
    09:00 +2°C° 0 mm 1 mps 634 mmHg 70%
    10:00 +3°C° 0 mm 1 mps 634 mmHg 67%
    11:00 +4°C° 0 mm 1 mps 634 mmHg 63%
    12:00 +6°C° 0 mm 1 mps 635 mmHg 59%
    13:00 +6°C° 0 mm 1 mps 634 mmHg 61%
    14:00 +5°C° 0 mm 1 mps 634 mmHg 63%
    15:00 +5°C° 0 mm 1 mps 633 mmHg 65%
    16:00 +4°C° 0 mm 1 mps 632 mmHg 72%
    17:00 +2°C° 0 mm 1 mps 632 mmHg 78%
    18:00 0°C° 0 mm 1 mps 631 mmHg 84%
    19:00 0°C° 0 mm 1 mps 631 mmHg 85%
    20:00 0°C° 0 mm 1 mps 631 mmHg 85%
    21:00 -1°C° 0 mm 1 mps 631 mmHg 85%
    22:00 -1°C° 0 mm 1 mps 630 mmHg 85%
    23:00 -1°C° 0 mm 1 mps 630 mmHg 85%
    Show more